DH8TOM-3 Weather Reports


time (UTC)temp
C
wind
direction
speed
KPH
gust
KPH
rain 1hr
cm
rain 24hr
cm
rain mn
cm
humidity
%
barometer
mb
20260507072605 12 90 1.6 1.6 0.03 0.13 0.10 76 1009.7
20260507072103 12 90 1.6 1.6 0.03 0.13 0.10 76 1009.7
20260507071604 12 90 1.6 1.6 0.00 0.10 0.10 78 1009.6
20260507071103 12 90 1.6 1.6 0.00 0.10 0.10 78 1009.6
20260507070601 12 90 1.6 1.6 0.00 0.10 0.10 78 1009.5
20260507070100 12 90 1.6 1.6 0.00 0.10 0.10 78 1009.5
20260507065558 12 90 1.6 3.2 0.03 0.10 0.10 79 1009.4
20260507065058 12 90 1.6 3.2 0.03 0.10 0.10 79 1009.4
20260507064557 12 90 1.6 1.6 0.03 0.10 0.10 80 1009.1
20260507064056 12 90 1.6 1.6 0.03 0.10 0.10 80 1009.1
20260507063555 11 90 1.6 1.6 0.03 0.10 0.10 81 1009.0
20260507063054 11 90 1.6 1.6 0.03 0.10 0.10 81 1009.0
20260507062554 11 90 1.6 3.2 0.03 0.10 0.10 81 1008.9
20260507062053 11 90 1.6 3.2 0.03 0.10 0.10 81 1008.9
20260507061551 11 90 1.6 1.6 0.05 0.10 0.10 81 1008.8
20260507061051 11 90 1.6 1.6 0.05 0.10 0.10 81 1008.8
20260507060550 11 90 1.6 3.2 0.05 0.10 0.10 81 1008.7
20260507060048 11 90 1.6 3.2 0.05 0.10 0.10 81 1008.7
20260507055547 11 90 1.6 3.2 0.05 0.10 0.08 81 1008.5
20260507055046 11 90 1.6 3.2 0.05 0.10 0.08 81 1008.5
20260507054545 11 90 1.6 3.2 0.05 0.08 0.08 81 1008.4
20260507054044 11 90 1.6 3.2 0.05 0.08 0.08 81 1008.4
20260507053542 11 90 1.6 1.6 0.03 0.08 0.05 80 1008.2
20260507053042 11 90 1.6 1.6 0.05 0.08 0.05 80 1008.2
20260507052541 11 90 1.6 1.6 0.05 0.08 0.05 80 1008.1
20260507052045 11 90 1.6 1.6 0.05 0.08 0.05 80 1008.1
20260507051542 11 90 1.6 4.8 0.03 0.05 0.05 79 1008.1
20260507051038 11 90 1.6 4.8 0.03 0.05 0.05 79 1008.1
20260507050537 11 90 1.6 1.6 0.03 0.05 0.05 80 1008.0
20260507050036 11 90 1.6 1.6 0.03 0.05 0.05 80 1008.0
20260507045535 12 90 1.6 1.6 0.03 0.05 0.05 80 1007.9
20260507045033 12 90 1.6 3.2 0.00 0.05 0.03 80 1007.8
20260507044532 12 90 1.6 3.2 0.00 0.05 0.03 80 1007.8
20260507044032 12 90 1.6 1.6 0.00 0.05 0.03 79 1007.7
20260507043533 12 90 1.6 1.6 0.00 0.05 0.03 79 1007.7
20260507043031 12 90 1.6 1.6 0.00 0.03 0.03 79 1007.5
20260507042529 12 90 1.6 1.6 0.00 0.03 0.03 79 1007.5
20260507042030 12 90 1.6 4.8 0.00 0.03 0.03 79 1007.5
20260507041527 12 90 1.6 4.8 0.00 0.03 0.03 79 1007.5
20260507041026 12 90 1.6 1.6 0.00 0.03 0.03 79 1007.4
20260507040525 12 90 1.6 1.6 0.00 0.03 0.03 79 1007.4
20260507040024 12 125 1.6 1.6 0.00 0.03 0.03 79 1007.4
20260507035523 12 125 1.6 1.6 0.00 0.03 0.03 79 1007.4
20260507035022 12 90 1.6 1.6 0.00 0.03 0.03 79 1007.3
20260507034521 12 90 1.6 1.6 0.00 0.03 0.03 79 1007.3
20260507034020 12 90 1.6 1.6 0.00 0.03 0.03 80 1007.3
20260507033518 12 90 1.6 1.6 0.00 0.03 0.03 80 1007.3
20260507033018 12 90 1.6 1.6 0.00 0.03 0.03 80 1007.3
20260507032517 12 90 1.6 1.6 0.00 0.03 0.03 80 1007.3
20260507032016 12 90 1.6 1.6 0.00 0.05 0.03 80 1007.2
20260507031014 12 90 1.6 1.6 0.00 0.05 0.03 80 1007.1
20260507030012 12 90 1.6 1.6 0.00 0.05 0.03 81 1007.1
20260507025010 12 90 1.6 1.6 0.00 0.05 0.03 83 1007.1
20260507024008 12 90 1.6 1.6 0.00 0.05 0.03 85 1007.1
20260507023006 13 90 1.6 1.6 0.00 0.05 0.03 79 1007.0
20260507022004 13 90 1.6 1.6 0.00 0.05 0.03 79 1007.1
20260507021002 13 90 1.6 1.6 0.03 0.05 0.03 79 1007.1
20260507020002 13 135 1.6 1.6 0.03 0.05 0.03 79 1007.1
20260507015459 13 135 1.6 1.6 0.03 0.05 0.03 79 1007.1
20260507014958 13 90 1.6 1.6 0.03 0.05 0.03 79 1007.1
20260507014457 13 90 1.6 1.6 0.03 0.05 0.03 79 1007.1
20260507013956 13 90 1.6 1.6 0.00 0.03 0.00 79 1007.1
20260507013455 13 90 1.6 1.6 0.00 0.03 0.00 79 1007.1
20260507012954 13 90 1.6 3.2 0.00 0.05 0.00 78 1007.1
20260507012453 13 90 1.6 3.2 0.00 0.05 0.00 78 1007.1
20260507011952 13 90 1.6 3.2 0.00 0.03 0.00 77 1007.0
20260507011451 13 90 1.6 3.2 0.00 0.03 0.00 77 1007.0
20260507010950 13 90 1.6 1.6 0.00 0.03 0.00 77 1006.9
20260507010449 13 90 1.6 1.6 0.00 0.03 0.00 77 1006.9
20260507005947 13 90 1.6 1.6 0.00 0.03 0.00 77 1006.8
20260507005447 13 90 1.6 1.6 0.00 0.03 0.00 77 1006.8
20260507004946 13 90 1.6 3.2 0.00 0.03 0.00 77 1006.8
20260507004445 13 90 1.6 3.2 0.00 0.03 0.00 77 1006.8
20260507003944 13 90 1.6 1.6 0.00 0.03 0.00 76 1006.7
20260507003442 13 90 1.6 1.6 0.00 0.03 0.00 76 1006.7
20260507002942 13 126 1.6 1.6 0.00 0.03 0.00 77 1006.6
20260507002441 13 126 1.6 1.6 0.00 0.05 0.00 77 1006.6
20260507001940 13 90 1.6 1.6 0.00 0.05 0.00 76 1006.6
20260507001438 13 90 1.6 1.6 0.00 0.05 0.00 76 1006.6
20260507000938 13 135 1.6 1.6 0.00 0.05 0.00 77 1006.6
20260507000437 13 135 1.6 1.6 0.00 0.05 0.00 77 1006.6
20260506235935 14 90 1.6 1.6 0.00 0.05 0.00 77 1006.7
20260506235435 14 90 1.6 1.6 0.00 0.05 0.00 77 1006.7
20260506234934 14 125 1.6 1.6 0.00 0.05 0.00 77 1006.5
20260506234433 14 125 1.6 1.6 0.00 0.05 0.00 77 1006.5
20260506233932 14 90 1.6 1.6 0.00 0.05 0.00 78 1006.5
20260506233430 14 90 1.6 1.6 0.00 0.08 0.00 78 1006.5
20260506232930 14 135 1.6 1.6 0.00 0.08 0.00 78 1006.4
20260506232429 14 135 1.6 1.6 0.00 0.08 0.00 78 1006.4
20260506231928 14 90 1.6 1.6 0.00 0.08 0.00 78 1006.4
20260506231427 14 90 1.6 1.6 0.00 0.08 0.00 78 1006.4
20260506230926 14 90 1.6 1.6 0.00 0.08 0.00 79 1006.2
20260506230424 14 90 1.6 1.6 0.00 0.08 0.00 79 1006.2
20260506225924 14 90 1.6 3.2 0.00 0.08 0.00 78 1006.2
20260506225423 14 90 1.6 3.2 0.00 0.08 0.00 78 1006.2
20260506224922 14 90 1.6 1.6 0.00 0.08 0.00 78 1006.1
20260506224420 14 90 1.6 1.6 0.00 0.10 0.00 78 1006.1
20260506223920 15 123 1.6 3.2 0.00 0.10 0.00 78 1006.2
20260506223419 15 123 1.6 3.2 0.00 0.10 0.00 78 1006.2
20260506222918 15 90 1.6 3.2 0.00 0.10 0.00 78 1006.1
20260506222416 15 90 1.6 3.2 0.00 0.10 0.00 78 1006.1
20260506221916 15 90 1.6 1.6 0.00 0.10 0.00 78 1006.0
20260506221415 15 90 1.6 1.6 0.00 0.15 0.00 78 1006.0
20260506220915 15 90 1.6 1.6 0.00 0.15 0.00 78 1005.9
20260506220413 15 90 1.6 1.6 0.00 0.23 0.00 78 1005.9
20260506215912 15 123 1.6 1.6 0.00 0.23 0.23 78 1005.8
20260506215410 15 123 1.6 1.6 0.00 0.28 0.23 78 1005.8
20260506214910 15 90 1.6 1.6 0.00 0.28 0.23 78 1005.7
20260506214409 15 90 1.6 1.6 0.00 0.33 0.23 78 1005.7
20260506213908 15 90 1.6 3.2 0.00 0.33 0.23 79 1005.9
20260506213406 15 90 1.6 3.2 0.00 0.38 0.23 79 1005.9
20260506212906 15 90 1.6 1.6 0.00 0.38 0.23 78 1005.9
20260506212405 15 90 1.6 1.6 0.00 0.43 0.23 78 1005.9
20260506211905 15 90 1.6 1.6 0.00 0.43 0.23 78 1005.7
20260506211403 15 90 1.6 1.6 0.00 0.46 0.23 78 1005.7
20260506210903 15 90 1.6 1.6 0.00 0.46 0.23 78 1005.6
20260506210400 15 90 1.6 1.6 0.00 0.48 0.23 78 1005.6
20260506205900 15 90 1.6 1.6 0.00 0.48 0.23 78 1005.6
20260506205359 15 90 1.6 1.6 0.00 0.48 0.23 78 1005.6
20260506204859 15 125 1.6 1.6 0.00 0.48 0.23 78 1005.4
20260506204357 15 125 1.6 1.6 0.00 0.48 0.23 78 1005.4
20260506203857 15 125 1.6 1.6 0.00 0.48 0.23 78 1005.4
20260506203355 15 126 1.6 1.6 0.00 0.48 0.23 78 1005.4
20260506202854 15 126 1.6 1.6 0.00 0.48 0.23 78 1005.4
20260506202353 15 90 1.6 1.6 0.00 0.48 0.23 78 1005.5
20260506201852 15 90 1.6 1.6 0.00 0.48 0.23 78 1005.5
20260506201351 15 90 1.6 3.2 0.00 0.48 0.23 78 1005.6
20260506200849 15 90 1.6 3.2 0.00 0.48 0.23 78 1005.6
20260506200349 16 125 1.6 1.6 0.00 0.48 0.23 78 1005.5
20260506195848 16 125 1.6 1.6 0.00 0.48 0.23 78 1005.5
20260506195347 16 90 1.6 1.6 0.00 0.48 0.23 77 1005.6
20260506194845 16 90 1.6 1.6 0.00 0.48 0.23 77 1005.6
20260506194346 16 90 1.6 1.6 0.00 0.48 0.23 76 1005.4
20260506193844 16 90 1.6 1.6 0.00 0.48 0.23 76 1005.4
20260506193342 16 90 1.6 3.2 0.00 0.48 0.23 76 1005.3
20260506192843 16 90 1.6 3.2 0.00 0.48 0.23 76 1005.3
20260506192342 16 90 1.6 1.6 0.00 0.48 0.23 76 1005.0
20260506191840 16 90 1.6 1.6 0.00 0.48 0.23 76 1005.0
20260506191339 16 90 1.6 1.6 0.00 0.48 0.23 76 1004.9
20260506190838 16 90 1.6 1.6 0.00 0.48 0.23 76 1004.9
20260506190336 16 90 1.6 1.6 0.00 0.48 0.20 76 1004.9
20260506185836 16 90 1.6 1.6 0.00 0.48 0.20 76 1004.9
20260506185335 16 90 1.6 1.6 0.00 0.48 0.20 75 1004.9
20260506184834 16 90 1.6 1.6 0.00 0.48 0.20 75 1004.9
20260506184332 16 149 1.6 1.6 0.00 0.48 0.20 74 1005.0
20260506183831 16 149 1.6 1.6 0.00 0.48 0.20 74 1005.0
20260506183331 17 135 1.6 3.2 0.00 0.48 0.20 74 1004.8
20260506182830 17 135 1.6 3.2 0.00 0.48 0.20 74 1004.8
20260506182329 17 154 1.6 1.6 0.00 0.48 0.20 75 1004.4
20260506181828 17 154 1.6 1.6 0.00 0.48 0.20 75 1004.4
20260506181327 17 165 1.6 1.6 0.00 0.48 0.20 74 1004.4
20260506180826 17 165 1.6 1.6 0.00 0.48 0.20 74 1004.4
20260506180326 17 176 1.6 1.6 0.00 0.48 0.20 72 1004.2
20260506175824 17 176 1.6 1.6 0.00 0.48 0.20 72 1004.2
20260506175323 17 173 1.6 3.2 0.00 0.48 0.20 70 1004.2
20260506174822 17 173 1.6 3.2 0.00 0.48 0.20 70 1004.2
20260506174321 18 168 1.6 1.6 0.00 0.48 0.20 70 1004.1
20260506173820 18 168 1.6 1.6 0.00 0.48 0.20 70 1004.1
20260506173318 18 176 1.6 1.6 0.00 0.48 0.20 70 1004.1
20260506172818 18 176 1.6 1.6 0.00 0.48 0.20 70 1004.1
20260506172317 18 171 1.6 3.2 0.00 0.48 0.20 69 1003.9
20260506171817 18 171 1.6 3.2 0.00 0.48 0.20 69 1003.9
20260506171315 18 180 1.6 1.6 0.00 0.48 0.20 69 1003.7
20260506170814 18 180 1.6 1.6 0.00 0.48 0.20 69 1003.7
20260506170312 18 180 1.6 1.6 0.00 0.48 0.20 69 1003.8
20260506165811 18 180 1.6 1.6 0.00 0.48 0.20 69 1003.8
20260506165311 19 177 1.6 3.2 0.00 0.48 0.20 69 1003.7
20260506164810 19 177 1.6 3.2 0.00 0.48 0.20 69 1003.7
20260506164308 19 176 1.6 3.2 0.00 0.48 0.20 68 1003.6
20260506163808 19 176 1.6 3.2 0.00 0.48 0.20 68 1003.6
20260506163307 20 177 1.6 3.2 0.00 0.48 0.20 67 1003.6
20260506162806 20 177 1.6 3.2 0.00 0.48 0.20 67 1003.6
20260506162408 20 180 1.6 3.2 0.00 0.48 0.20 66 1003.6
20260506161904 20 180 1.6 3.2 0.00 0.48 0.20 66 1003.6
20260506161303 20 185 1.6 3.2 0.00 0.48 0.20 66 1003.7
20260506160802 20 185 1.6 3.2 0.00 0.48 0.20 66 1003.7
20260506160301 20 186 1.6 1.6 0.00 0.48 0.20 66 1003.6
20260506155800 20 186 1.6 1.6 0.00 0.48 0.20 66 1003.6
20260506155258 20 188 1.6 1.6 0.00 0.48 0.20 65 1003.5
20260506154757 20 188 1.6 1.6 0.00 0.48 0.20 65 1003.5
20260506154257 20 183 1.6 1.6 0.00 0.48 0.20 65 1003.6
20260506153756 20 183 1.6 1.6 0.00 0.48 0.20 65 1003.6
20260506153255 20 171 1.6 3.2 0.00 0.48 0.20 66 1003.7
20260506152753 20 171 1.6 3.2 0.00 0.48 0.20 66 1003.7
20260506152253 20 180 1.6 1.6 0.00 0.48 0.20 65 1003.6
20260506151752 20 180 1.6 1.6 0.00 0.48 0.20 65 1003.6
20260506151251 20 185 1.6 4.8 0.00 0.48 0.20 65 1003.7
20260506150750 20 185 1.6 4.8 0.00 0.48 0.20 65 1003.7
20260506150249 20 173 1.6 1.6 0.00 0.48 0.20 65 1003.7
20260506145747 20 173 1.6 1.6 0.00 0.48 0.20 65 1003.7
20260506145246 20 177 1.6 3.2 0.00 0.48 0.20 64 1003.7
20260506144746 20 177 1.6 3.2 0.00 0.48 0.20 64 1003.7
20260506144246 20 173 1.6 1.6 0.00 0.48 0.20 64 1003.8
20260506143744 20 173 1.6 1.6 0.00 0.48 0.20 64 1003.8
20260506143244 20 194 1.6 1.6 0.00 0.48 0.20 65 1003.8
20260506142742 20 194 1.6 1.6 0.00 0.48 0.20 65 1003.8
20260506142241 20 192 1.6 3.2 0.00 0.48 0.20 66 1003.8
20260506141740 20 192 1.6 3.2 0.00 0.48 0.20 66 1003.8
20260506141239 20 192 1.6 3.2 0.00 0.48 0.20 66 1003.9
20260506140739 20 192 1.6 3.2 0.00 0.48 0.20 66 1003.9
20260506140237 20 190 1.6 3.2 0.00 0.48 0.20 67 1004.0
20260506135736 20 190 1.6 3.2 0.00 0.48 0.20 67 1004.0
20260506135235 20 174 1.6 3.2 0.00 0.48 0.20 68 1004.0
20260506134734 20 174 1.6 3.2 0.00 0.48 0.20 68 1004.0
20260506134233 20 177 1.6 3.2 0.00 0.48 0.20 70 1004.1
20260506133732 20 177 1.6 3.2 0.00 0.48 0.20 70 1004.1
20260506133231 20 180 1.6 3.2 0.00 0.48 0.20 67 1004.1
20260506132729 20 180 1.6 3.2 0.00 0.48 0.20 67 1004.1
20260506132229 20 188 1.6 3.2 0.00 0.48 0.20 64 1004.1
20260506131728 20 188 1.6 3.2 0.00 0.48 0.20 64 1004.1
20260506131227 20 194 1.6 3.2 0.00 0.48 0.20 64 1004.0
20260506130726 20 194 1.6 3.2 0.00 0.48 0.20 64 1004.0
20260506130224 20 188 1.6 3.2 0.00 0.48 0.20 63 1004.1
20260506125723 20 188 1.6 3.2 0.00 0.48 0.20 63 1004.1
20260506125223 20 190 1.6 3.2 0.00 0.48 0.20 63 1004.0
20260506124722 20 190 1.6 3.2 0.00 0.48 0.20 63 1004.0
20260506124220 20 191 1.6 4.8 0.00 0.48 0.20 63 1004.1
20260506123720 20 191 1.6 4.8 0.00 0.48 0.20 63 1004.1
20260506123339 20 194 1.6 3.2 0.00 0.48 0.20 65 1004.1
20260506122718 20 194 1.6 3.2 0.00 0.48 0.20 65 1004.1
20260506122216 20 192 1.6 1.6 0.00 0.48 0.20 65 1004.1
20260506121716 20 192 1.6 1.6 0.00 0.48 0.20 65 1004.1
20260506121215 20 187 1.6 3.2 0.00 0.48 0.20 64 1004.1
20260506120713 20 187 1.6 3.2 0.00 0.48 0.20 64 1004.1
20260506120212 20 190 1.6 3.2 0.00 0.48 0.20 65 1004.2
20260506115712 20 190 1.6 3.2 0.00 0.48 0.20 65 1004.2
20260506115211 20 185 1.6 3.2 0.00 0.48 0.20 65 1004.1
20260506114710 20 185 1.6 3.2 0.00 0.48 0.20 65 1004.1
20260506114208 19 191 1.6 1.6 0.00 0.48 0.20 66 1004.2
20260506113708 19 191 1.6 1.6 0.00 0.48 0.20 66 1004.2
20260506113208 19 191 1.6 3.2 0.00 0.48 0.20 66 1004.3
20260506112707 19 191 1.6 3.2 0.00 0.48 0.20 66 1004.3
20260506112204 19 188 1.6 1.6 0.00 0.48 0.20 67 1004.3
20260506111704 19 188 1.6 1.6 0.00 0.48 0.20 67 1004.3
20260506111204 19 186 1.6 1.6 0.00 0.48 0.20 67 1004.3
20260506110702 19 186 1.6 1.6 0.00 0.48 0.20 67 1004.3
20260506110200 19 183 1.6 3.2 0.00 0.48 0.20 67 1004.3
20260506105659 19 183 1.6 3.2 0.00 0.48 0.20 67 1004.3
20260506105159 19 188 1.6 3.2 0.00 0.48 0.20 68 1004.4
20260506104658 19 188 1.6 3.2 0.00 0.48 0.20 68 1004.4
20260506104158 19 185 1.6 3.2 0.00 0.48 0.20 67 1004.6
20260506103656 19 185 1.6 3.2 0.00 0.48 0.20 67 1004.6
20260506103155 18 196 1.6 3.2 0.00 0.48 0.20 70 1004.5
20260506102653 18 196 1.6 3.2 0.00 0.48 0.20 70 1004.5
20260506102154 18 174 1.6 3.2 0.00 0.48 0.20 70 1004.4
20260506101652 18 174 1.6 3.2 0.00 0.48 0.20 70 1004.4
20260506101151 18 174 1.6 3.2 0.00 0.48 0.20 71 1004.3
20260506100650 18 174 1.6 3.2 0.00 0.48 0.20 71 1004.3
20260506100150 18 168 1.6 3.2 0.00 0.48 0.20 72 1004.2
20260506095648 18 168 1.6 3.2 0.00 0.48 0.20 72 1004.2
20260506095147 17 171 1.6 3.2 0.00 0.48 0.20 73 1004.3
20260506094646 17 171 1.6 3.2 0.00 0.48 0.20 73 1004.3
20260506094145 17 168 1.6 3.2 0.00 0.48 0.20 72 1004.3
20260506093644 17 168 1.6 3.2 0.00 0.48 0.20 72 1004.3
20260506093142 17 177 1.6 3.2 0.00 0.48 0.20 71 1004.2
20260506092642 17 177 1.6 3.2 0.00 0.48 0.20 71 1004.2
20260506092141 18 175 1.6 3.2 0.00 0.48 0.20 71 1004.0
20260506091640 18 175 1.6 3.2 0.00 0.48 0.20 71 1004.0
20260506091140 18 176 1.6 3.2 0.00 0.48 0.20 74 1004.0
20260506090639 18 176 1.6 3.2 0.00 0.48 0.20 74 1004.0